Hourly Weather Ruda

Today, 26 July, Monday

Time Temperature Precipitation Wind Pressure Humidity
00:00 +20°C° 0 mm 3 mps 757 mmHg 82%
01:00 +19°C° 0 mm 3 mps 757 mmHg 83%
02:00 +19°C° 0 mm 3 mps 757 mmHg 83%
03:00 +19°C° 0 mm 3 mps 757 mmHg 83%
04:00 +19°C° 0 mm 3 mps 756 mmHg 83%
05:00 +20°C° 0 mm 4 mps 756 mmHg 79%
06:00 +21°C° 0 mm 4 mps 756 mmHg 74%
07:00 +22°C° 0 mm 4 mps 756 mmHg 69%
08:00 +23°C° 0 mm 4 mps 756 mmHg 65%
09:00 +26°C° 0 mm 4 mps 756 mmHg 61%
10:00 +27°C° 0 mm 5 mps 756 mmHg 57%
11:00 +29°C° 0 mm 4 mps 756 mmHg 53%
12:00 +30°C° 0 mm 4 mps 755 mmHg 49%
13:00 +32°C° 0 mm 4 mps 755 mmHg 45%
14:00 +30°C° 0 mm 4 mps 755 mmHg 50%
15:00 +29°C° 0 mm 3 mps 755 mmHg 55%
16:00 +28°C° 0 mm 3 mps 755 mmHg 59%
17:00 +27°C° 0.8 mm 3 mps 755 mmHg 67%
18:00 +26°C° 0.8 mm 3 mps 755 mmHg 74%
19:00 +24°C° 0.8 mm 3 mps 755 mmHg 81%
20:00 +23°C° 0.8 mm 2 mps 755 mmHg 85%
21:00 +23°C° 0.8 mm 2 mps 755 mmHg 88%
22:00 +21°C° 0.8 mm 2 mps 755 mmHg 92%
23:00 +20°C° 0.2 mm 2 mps 755 mmHg 93%

Tomorrow, 27 July, Tuesday

Time Temperature Precipitation Wind Pressure Humidity
00:00 +20°C° 0.2 mm 2 mps 755 mmHg 94%
01:00 +21°C° 0.2 mm 1 mps 755 mmHg 95%
02:00 +20°C° 0 mm 1 mps 755 mmHg 94%
03:00 +20°C° 0 mm 1 mps 755 mmHg 94%
04:00 +20°C° 0 mm 1 mps 755 mmHg 94%
05:00 +21°C° 0 mm 1 mps 755 mmHg 89%
06:00 +22°C° 0 mm 1 mps 755 mmHg 85%
07:00 +24°C° 0 mm 2 mps 755 mmHg 81%
08:00 +25°C° 0.1 mm 2 mps 755 mmHg 75%
09:00 +26°C° 0.1 mm 3 mps 756 mmHg 70%
10:00 +27°C° 0.1 mm 4 mps 756 mmHg 65%
11:00 +27°C° 0.2 mm 4 mps 756 mmHg 60%
12:00 +28°C° 0.2 mm 3 mps 756 mmHg 55%
13:00 +29°C° 0.2 mm 3 mps 756 mmHg 50%
14:00 +29°C° 0 mm 3 mps 756 mmHg 49%
15:00 +29°C° 0 mm 2 mps 756 mmHg 49%
16:00 +30°C° 0 mm 2 mps 755 mmHg 48%
17:00 +28°C° 0 mm 2 mps 755 mmHg 54%
18:00 +27°C° 0 mm 3 mps 755 mmHg 60%
19:00 +26°C° 0 mm 3 mps 755 mmHg 66%
20:00 +24°C° 0 mm 2 mps 756 mmHg 70%
21:00 +23°C° 0 mm 2 mps 756 mmHg 74%
22:00 +21°C° 0 mm 2 mps 756 mmHg 79%
23:00 +22°C° 0 mm 1 mps 756 mmHg 80%

Day after tomorrow, 28 July, Wednesday

Time Temperature Precipitation Wind Pressure Humidity
00:00 +21°C° 0 mm 1 mps 756 mmHg 81%
01:00 +21°C° 0 mm 1 mps 756 mmHg 82%
02:00 +21°C° 0 mm 1 mps 756 mmHg 80%
03:00 +20°C° 0 mm 2 mps 756 mmHg 79%
04:00 +20°C° 0 mm 2 mps 756 mmHg 77%
05:00 +21°C° 0 mm 3 mps 756 mmHg 72%
06:00 +22°C° 0 mm 3 mps 756 mmHg 67%
07:00 +23°C° 0 mm 4 mps 756 mmHg 63%
08:00 +26°C° 0 mm 4 mps 756 mmHg 57%
09:00 +28°C° 0 mm 5 mps 756 mmHg 51%
10:00 +29°C° 0 mm 5 mps 756 mmHg 46%
11:00 +30°C° 0 mm 5 mps 755 mmHg 43%
12:00 +30°C° 0 mm 5 mps 755 mmHg 40%
13:00 +32°C° 0 mm 5 mps 755 mmHg 38%
14:00 +30°C° 0 mm 5 mps 755 mmHg 39%
15:00 +30°C° 0 mm 6 mps 755 mmHg 39%
16:00 +30°C° 0 mm 6 mps 755 mmHg 40%
17:00 +28°C° 0 mm 5 mps 755 mmHg 46%
18:00 +26°C° 0 mm 4 mps 755 mmHg 52%
19:00 +23°C° 0 mm 4 mps 755 mmHg 58%
20:00 +22°C° 0.1 mm 3 mps 755 mmHg 64%
21:00 +21°C° 0.1 mm 3 mps 756 mmHg 69%
22:00 +20°C° 0.1 mm 3 mps 756 mmHg 75%
23:00 +19°C° 0 mm 3 mps 756 mmHg 80%

29 July, Thursday

Time Temperature Precipitation Wind Pressure Humidity
00:00 +17°C° 0 mm 3 mps 756 mmHg 85%
01:00 +16°C° 0 mm 2 mps 756 mmHg 90%
02:00 +16°C° 0 mm 2 mps 756 mmHg 92%
03:00 +16°C° 0 mm 2 mps 756 mmHg 93%
04:00 +16°C° 0 mm 2 mps 756 mmHg 94%
05:00 +17°C° 0 mm 3 mps 756 mmHg 87%
06:00 +19°C° 0 mm 3 mps 756 mmHg 80%
07:00 +20°C° 0 mm 4 mps 756 mmHg 74%
08:00 +22°C° 0 mm 4 mps 756 mmHg 65%
09:00 +25°C° 0 mm 5 mps 756 mmHg 57%
10:00 +27°C° 0 mm 5 mps 756 mmHg 49%
11:00 +27°C° 0 mm 6 mps 756 mmHg 47%
12:00 +27°C° 0 mm 6 mps 755 mmHg 46%
13:00 +27°C° 0 mm 6 mps 755 mmHg 44%
14:00 +28°C° 0 mm 6 mps 755 mmHg 42%
15:00 +28°C° 0 mm 6 mps 755 mmHg 40%
16:00 +28°C° 0 mm 5 mps 755 mmHg 38%
17:00 +27°C° 0 mm 5 mps 755 mmHg 42%
18:00 +26°C° 0 mm 4 mps 755 mmHg 46%
19:00 +23°C° 0 mm 4 mps 755 mmHg 50%
20:00 +22°C° 0 mm 3 mps 755 mmHg 54%
21:00 +20°C° 0 mm 2 mps 755 mmHg 58%
22:00 +19°C° 0 mm 2 mps 755 mmHg 62%
23:00 +18°C° 0 mm 2 mps 755 mmHg 64%

30 July, Friday

Time Temperature Precipitation Wind Pressure Humidity
00:00 +19°C° 0 mm 1 mps 754 mmHg 65%
01:00 +19°C° 0 mm 1 mps 754 mmHg 66%
02:00 +19°C° 0 mm 1 mps 754 mmHg 65%
03:00 +19°C° 0 mm 1 mps 754 mmHg 64%
04:00 +18°C° 0 mm 2 mps 753 mmHg 63%
05:00 +19°C° 0 mm 2 mps 753 mmHg 62%
06:00 +21°C° 0 mm 3 mps 753 mmHg 60%
07:00 +22°C° 0 mm 3 mps 752 mmHg 59%
08:00 +22°C° 0.1 mm 4 mps 752 mmHg 66%
09:00 +22°C° 0.1 mm 5 mps 751 mmHg 72%
10:00 +22°C° 0.1 mm 5 mps 751 mmHg 79%
11:00 +23°C° 0.7 mm 5 mps 750 mmHg 77%
12:00 +24°C° 0.7 mm 6 mps 750 mmHg 75%
13:00 +24°C° 0.7 mm 6 mps 749 mmHg 73%
14:00 +26°C° 0.4 mm 6 mps 749 mmHg 63%
15:00 +27°C° 0.4 mm 6 mps 749 mmHg 54%
16:00 +28°C° 0.4 mm 7 mps 749 mmHg 45%
17:00 +26°C° 0 mm 7 mps 750 mmHg 46%
18:00 +23°C° 0 mm 7 mps 750 mmHg 46%
19:00 +21°C° 0 mm 7 mps 750 mmHg 47%
20:00 +20°C° 0 mm 6 mps 751 mmHg 51%
21:00 +19°C° 0 mm 4 mps 751 mmHg 55%
22:00 +17°C° 0 mm 3 mps 751 mmHg 60%
23:00 +17°C° 0 mm 3 mps 752 mmHg 63%

31 July, Saturday

Time Temperature Precipitation Wind Pressure Humidity
00:00 +16°C° 0 mm 3 mps 752 mmHg 65%
01:00 +14°C° 0 mm 3 mps 752 mmHg 68%
02:00 +14°C° 0 mm 3 mps 752 mmHg 69%
03:00 +14°C° 0 mm 3 mps 752 mmHg 70%
04:00 +14°C° 0 mm 4 mps 751 mmHg 70%
05:00 +15°C° 0 mm 4 mps 751 mmHg 66%
06:00 +17°C° 0 mm 5 mps 751 mmHg 63%
07:00 +19°C° 0 mm 5 mps 751 mmHg 59%
08:00 +20°C° 0 mm 6 mps 751 mmHg 55%
09:00 +22°C° 0 mm 7 mps 751 mmHg 51%
10:00 +23°C° 0 mm 8 mps 751 mmHg 47%
11:00 +23°C° 0 mm 7 mps 751 mmHg 47%
12:00 +24°C° 0 mm 7 mps 751 mmHg 46%
13:00 +24°C° 0 mm 7 mps 751 mmHg 46%
14:00 +24°C° 0 mm 7 mps 751 mmHg 45%
15:00 +24°C° 0 mm 7 mps 751 mmHg 45%
16:00 +24°C° 0 mm 7 mps 751 mmHg 45%
17:00 +23°C° 0 mm 6 mps 751 mmHg 47%
18:00 +22°C° 0 mm 5 mps 751 mmHg 50%
19:00 +22°C° 0 mm 4 mps 751 mmHg 53%
20:00 +20°C° 0 mm 4 mps 751 mmHg 58%
21:00 +19°C° 0 mm 3 mps 752 mmHg 63%
22:00 +17°C° 0 mm 3 mps 752 mmHg 67%
23:00 +17°C° 0 mm 3 mps 752 mmHg 70%
Show more

We Need Your Consent

Meteoprog and our Service Providers may store and access personal data such as cookies, device identifiers or other similar technologies on your device and process such data to personalise content and ads, as well as provide social media features and to analyse the traffic.

  • Store and/or access information on your device

    Cookies, device identifiers or other information can be stored or accessed on your device for the purposes indicated above.

  • Personalised ads and content, ad and content measurement, audience insights, and products development

    Ads and content can be personalised based on a profile. More data can be added to better personalise ads and content. Ad and content performance can be measured. Insights about the audience who saw the ads and content can be derived. Such data can be used to develop or improve user’s experience, systems and software.

By clicking ‘I Agree’ you will allow the use of indicated cookies, device identifiers, web beacons or other similar technologies. Your settings can be changed in the browser on your device.

For certain purposes, legitimate interests may be relied on, rather than consent. You can read more about this in our Privacy and Cookie Policy.